Weather History for Safford, AZ

Change the Weather History Date:

Tuesday, November 13, 2012

  Actual Average Record
Temperature  
Mean Temperature 54 °F -  
Max Temperature 66 °F 70 °F 82 °F (1989)
Min Temperature 41 °F 37 °F 26 °F (1950)
Degree Days  
Heating Degree Days 12    
Growing Degree Days 4 (Base 50)    
Moisture  
Dew Point 8 °F    
Average Humidity 19    
Maximum Humidity 29    
Minimum Humidity 8    
Precipitation  
Precipitation 0.00 in - - ()
Sea Level Pressure  
Sea Level Pressure 30.16 in    
Wind  
Wind Speed 9 mph (SE)    
Max Wind Speed 13 mph    
Max Gust Speed -    
Visibility 10 miles    
Events      
Averages and records for this station are not official NWS values.
T = Trace of Precipitation, MM = Missing Value Source: NWS Daily Summary

Daily Weather History Graph

Daily Weather History Graph

Search for Another Location

Airport:

Trip Planner

Search our weather history database for the weather conditions in past years. The results will help you decide how hot, cold, wet, or windy it might be!

Date:

Astronomy

Nov. 13, 2012 Rise Set
Actual Time 6:47 AM MST 5:17 PM MST
Civil Twilight 6:21 AM MST 5:44 PM MST
Nautical Twilight 5:51 AM MST 6:13 PM MST
Astronomical Twilight 5:22 AM MST 6:43 PM MST
Moon 6:28 AM MST (11/13) 5:15 PM MST (11/13)
Length of Visible Light 11h 22m
Length of Day
10h 30m
Waning Crescent, 0% of the Moon is Illuminated
Nov 13
Waning Crescent
Nov 13
New
Nov 20
First Quarter
Nov 28
Full
Dec 6
Last Quarter

Hourly Weather History & Observations

Time (MST) Temp. Windchill Dew Point Humidity Pressure Visibility Wind Dir Wind Speed Gust Speed Precip Events Conditions
12:51 AM 43.0 °F 37.2 °F 6.1 °F 22% 30.18 in 10.0 mi SSE 10.4 mph - N/A   Clear
1:51 AM 45.0 °F 39.3 °F 9.0 °F 23% 30.18 in 10.0 mi SE 11.5 mph - N/A   Clear
2:51 AM 43.0 °F 37.2 °F 10.9 °F 27% 30.18 in 10.0 mi ESE 10.4 mph - N/A   Clear
3:51 AM 42.1 °F 37.1 °F 12.0 °F 29% 30.17 in 10.0 mi ESE 8.1 mph - N/A   Clear
4:51 AM 42.1 °F 35.2 °F 12.0 °F 29% 30.18 in 10.0 mi ESE 12.7 mph - N/A   Clear
5:51 AM 41.0 °F 34.7 °F 10.9 °F 29% 30.20 in 10.0 mi ESE 10.4 mph - N/A   Clear
6:51 AM 42.1 °F 35.7 °F 10.0 °F 27% 30.21 in 10.0 mi SE 11.5 mph - N/A   Clear
7:51 AM 45.0 °F 39.7 °F 10.9 °F 25% 30.22 in 10.0 mi SE 10.4 mph - N/A   Clear
8:51 AM 50.0 °F - 12.0 °F 22% 30.23 in 10.0 mi SE 12.7 mph - N/A   Clear
9:51 AM 53.1 °F - 3.0 °F 13% 30.22 in 10.0 mi SE 11.5 mph - N/A   Clear
10:51 AM 57.0 °F - 1.9 °F 11% 30.20 in 10.0 mi SE 8.1 mph - N/A   Clear
11:51 AM 61.0 °F - 1.9 °F 9% 30.16 in 10.0 mi SE 8.1 mph - N/A   Clear
12:51 PM 63.0 °F - 1.9 °F 9% 30.12 in 10.0 mi Variable 3.5 mph - N/A   Clear
1:51 PM 64.9 °F - 3.0 °F 9% 30.09 in 10.0 mi Variable 5.8 mph - N/A   Clear
2:51 PM 64.9 °F - 3.9 °F 9% 30.07 in 10.0 mi Variable 3.5 mph - N/A   Clear
3:51 PM 66.9 °F - 3.9 °F 8% 30.06 in 10.0 mi Calm Calm - N/A   Clear
4:51 PM 64.9 °F - 3.9 °F 9% 30.07 in 10.0 mi Calm Calm - N/A   Clear
5:51 PM 55.9 °F - 7.0 °F 14% 30.10 in 10.0 mi Calm Calm - N/A   Clear
6:51 PM 51.1 °F - 10.0 °F 19% 30.12 in 10.0 mi East 6.9 mph - N/A   Clear
7:51 PM 46.9 °F - 9.0 °F 21% 30.14 in 10.0 mi East 6.9 mph - N/A   Clear
8:51 PM 48.0 °F - 10.9 °F 22% 30.15 in 10.0 mi East 8.1 mph - N/A   Clear
9:51 PM 48.0 °F - 12.9 °F 24% 30.17 in 10.0 mi SSE 8.1 mph - N/A   Clear
10:51 PM 46.0 °F 41.9 °F 12.9 °F 26% 30.15 in 10.0 mi ESE 8.1 mph - N/A   Clear
11:51 PM 48.0 °F - 15.1 °F 27% 30.15 in 10.0 mi SE 12.7 mph - N/A   Clear